Regional Weather Roundup
Issued by NWS

Home | Current Version | Previous Version | Text Only | Print | Product List | Glossary Off
Versions: 1 2 3 4 5 6 7 8 9 10 11 12 13 14 15 16 17 18 19 20 21 22 23 24 25 26 27 28 29 30 31 32 33 34 35 36 37 38 39 40 41 42 43 44 45 46 47 48 49 50

000
ASUS43 KOAX 020610
RWRNE

WEATHER ROUNDUP FOR NEBRASKA
NATIONAL WEATHER SERVICE OMAHA NE
1200 AM CST MON MAR 02 2015

NOTES: SATELLITE DATA IS BEING USED TO AUGMENT CLOUD COVER ABOVE
       12000 FEET.
       "FAIR" INDICATES FEW OR NO CLOUDS BELOW 12,000 FEET WITH NO
       SIGNIFICANT WEATHER AND/OR OBSTRUCTIONS TO VISIBILITY.

  * THESE STATIONS DO NOT REPORT WEATHER SUCH AS RAIN...SNOW OR FOG.

NEZ001>004-019>022-054>056-020700-
NEBRASKA PANHANDLE

CITY           SKY/WX    TMP DP  RH WIND       PRES   REMARKS
SCOTTSBLUFF    CLOUDY    25  14  63 E8        30.23F WCI  16
6HR MIN TEMP:  22; 6HR MAX TEMP:  34;

ALLIANCE       MOCLDY    23  14  68 SE8       30.25F WCI  14
6HR MIN TEMP:  19; 6HR MAX TEMP:  33;

CHADRON        MOCLDY    20  13  74 CALM      30.28F
6HR MIN TEMP:  19; 6HR MAX TEMP:  32;

KIMBALL        MOCLDY    22  18  86 S6        30.19F WCI  14
SIDNEY         MOCLDY    21  17  84 S6        30.26F WCI  13
6HR MIN TEMP:  21; 6HR MAX TEMP:  32;

$$

NEZ057>060-069>072-079>082-020700-
SOUTHWEST NEBRASKA

CITY           SKY/WX    TMP DP  RH WIND       PRES   REMARKS
NORTH PLATTE   PTCLDY    21  12  68 E6        30.37S WCI  13
6HR MIN TEMP:  18; 6HR MAX TEMP:  37;

IMPERIAL         N/A     26  16  65 CALM      30.33F
6HR MIN TEMP:  22; 6HR MAX TEMP:  36;

LEXINGTON      MOCLDY    26  14  59 CALM      30.41R
MCCOOK         CLOUDY    32  15  49 S6        30.37F WCI  26
6HR MIN TEMP:  30; 6HR MAX TEMP:  38;

OGALLALA       MOCLDY    21  16  81 CALM      30.33S
$$

NEZ005>010-023>029-035>040-094-020700-
NORTH CENTRAL NEBRASKA

CITY           SKY/WX    TMP DP  RH WIND       PRES   REMARKS
VALENTINE      PTCLDY    14   8  77 SW3       30.37F
6HR MIN TEMP:  14; 6HR MAX TEMP:  32;

AINSWORTH      PTCLDY    16  10  79 CALM      30.37F
BROKEN BOW     PTCLDY    15   7  70 CALM      30.39S
6HR MIN TEMP:  15; 6HR MAX TEMP:  37;

O`NEILL        PTCLDY    21   9  59 CALM      30.41F
ORD            MOCLDY    15   6  67 CALM      30.41S
6HR MIN TEMP:  14; 6HR MAX TEMP:  34;

THEDFORD       PTCLDY    18   8  66 CALM      30.37S
$$

NEZ041-046>049-061>064-073>077-083>087-020700-
SOUTH CENTRAL NEBRASKA

CITY           SKY/WX    TMP DP  RH WIND       PRES   REMARKS
GRAND ISLAND   CLOUDY    25  14  63 CALM      30.44S
6HR MIN TEMP:  23; 6HR MAX TEMP:  36;

AURORA         CLOUDY    26  14  60 NE5       30.42F WCI  21
HASTINGS       CLOUDY    28  13  53 E5        30.42R WCI  23
6HR MIN TEMP:  22; 6HR MAX TEMP:  36;

HEBRON         CLOUDY    27  19  71 CALM      30.46S
HOLDREGE       MOCLDY    25  10  52 NE3       30.40F
KEARNEY *      MOCLDY    25  10  54 CALM      30.42S
YORK           MOCLDY    23  18  80 NE5       30.44F WCI  17
$$

NEZ011>018-030>034-042>045-020700-
NORTHEAST NEBRASKA

CITY           SKY/WX    TMP DP  RH WIND       PRES   REMARKS
NORFOLK        PTCLDY    16   9  74 SE3       30.44S
6HR MIN TEMP:  16; 6HR MAX TEMP:  35;

ALBION         PTCLDY    13   6  71 CALM      30.43F
BLAIR          CLEAR     27  14  56 N8        30.45S WCI  19
COLUMBUS *     PTCLDY    19   7  58 CALM      30.47S
FREMONT        CLEAR     24  12  61 CALM      30.47R
TEKAMAH        PTCLDY    20  14  77 N3        30.49R
6HR MIN TEMP:  20; 6HR MAX TEMP:  36;

WAYNE          MOCLDY    11   5  77 CALM      30.46S
$$

NEZ050>053-065>068-078-088>093-020700-
SOUTHEAST NEBRASKA

CITY           SKY/WX    TMP DP  RH WIND       PRES   REMARKS
LINCOLN        MOCLDY    23  16  74 N5        30.48R WCI  17
6HR MIN TEMP:  18; 6HR MAX TEMP:  39;

OMAHA EPPLEY   PTCLDY    23  17  78 NW3       30.48S
6HR MIN TEMP:  20; 6HR MAX TEMP:  35;

BEATRICE       PTCLDY    25  20  80 CALM      30.46S
FALLS CITY     MOCLDY    26  21  81 CALM      30.47S
6HR MIN TEMP:  26; 6HR MAX TEMP:  36;

NEBRASKA CITY  PTCLDY    25  13  59 CALM      30.46S
PLATTSMOUTH    CLEAR     27  14  59 NW3       30.47R
$$

NEZ044-045-051>053-067-020700-
OMAHA AREA

CITY           SKY/WX    TMP DP  RH WIND       PRES   REMARKS
OMAHA EPPLEY   PTCLDY    23  17  78 NW3       30.48S
6HR MIN TEMP:  20; 6HR MAX TEMP:  35;

BLAIR          CLEAR     27  14  56 N8        30.45S WCI  19
FREMONT        CLEAR     24  12  61 CALM      30.47R
MILLARD        CLEAR     23  17  76 CALM      30.48S
OFFUTT AFB     MOCLDY    21  18  85 N2        30.48R
PLATTSMOUTH    CLEAR     27  14  59 NW3       30.47R
WAHOO          FAIR      20  10  66 N5        30.48R WCI  14
$$



USA.gov is the U.S. government's official web portal to all federal, state and local government web resources and services.